[[{"header":{"parameterUnit":"m.s-1","parameterCategory":1,"la1":30.2991,"la2":30.254,"lo1":-89.0895,"lo2":-89.0444,"dy":0.0017,"dx":0.0017,"nx":28,"ny":28,"refTime":"2024-03-24T21:00:00:Z","depth":0,"parameterNumber":2,"parameterNumberName":"U-component_of_WINDS"},"data":[0,0,0,0,0,0,0,0,0,0,0,0,0,0,0,0,0,0,0,0,0,0,0,0,0,0,0,0,0,0,0,0,0,0,0,0,0,0,0,0,0,0,0,0,0,0,0,0,0,0,0,0,0,0,0,0,0,0,-5.7371,-5.7372,0,-5.7407,-5.7408,-5.7408,-5.7285,-5.7281,-5.7277,-5.7274,-5.7312,-5.7316,-5.7321,0,0,0,0,0,0,0,0,0,0,0,0,0,-5.7198,-5.7202,-5.7371,-5.7372,-5.7372,-5.7407,-5.7408,-5.7408,-5.7285,-5.7281,-5.7276,-5.7272,-5.7311,-5.7316,-5.7321,0,0,0,0,0,0,0,0,0,0,0,0,0,-5.7258,-5.7203,-5.7371,-5.7315,-5.731,-5.7407,-5.7408,-5.7408,-5.7286,-5.7281,-5.7275,-5.727,-5.7309,-5.7315,-5.7322,-5.7475,0,0,-5.7343,-5.7345,0,0,0,0,0,0,0,0,-5.7254,-5.7264,-5.7323,-5.7319,-5.7314,-5.7336,-5.736,-5.7431,-5.7288,-5.7296,-5.7274,-5.7267,-5.7325,-5.733,-5.7349,-5.7477,-5.7478,-5.7343,-5.7347,-5.735,-5.7352,0,0,0,0,0,0,0,-5.725,-5.7262,-5.7385,-5.7324,-5.7319,-5.7289,-5.7291,-5.7373,-5.7341,-5.7294,-5.7286,-5.7291,-5.7321,-5.7342,-5.7349,-5.7479,-5.7343,-5.7349,-5.7353,-5.7356,-5.7734,-5.774,0,0,0,0,0,0,-5.7253,-5.7259,-5.7384,-5.7386,-5.727,-5.7296,-5.7299,-5.7334,-5.734,-5.7335,-5.7296,-5.7286,-5.7334,-5.7341,-5.735,-5.7529,-5.735,-5.7356,-5.736,-5.7728,-5.7736,-5.7742,0,0,0,0,0,0,-5.725,-5.7266,-5.7383,-5.732,-5.7333,-5.7305,-5.7346,-5.7338,-5.7359,-5.7341,-5.7335,-5.7324,-5.733,-5.734,-5.7444,-5.7528,-5.7359,-5.7365,-5.7721,-5.7731,-5.7739,-5.7889,0,0,0,0,0,0,-5.7246,-5.7265,-5.7323,-5.7323,-5.7337,-5.7477,-5.7351,-5.7343,-5.7371,-5.7357,-5.7365,-5.7361,-5.7326,-5.7435,-5.7451,-5.7535,-5.7371,-5.7714,-5.7725,-5.7736,-5.7877,-5.7902,-5.7924,0,0,0,0,0,-5.724,-5.7364,-5.7326,-5.7342,-5.7408,-5.7482,-5.749,-5.7447,-5.7378,-5.7436,-5.7424,-5.7361,-5.7517,-5.7447,-5.7464,-5.7551,-5.7708,-5.7722,-5.7735,-5.7866,-5.7897,-5.7924,0,0,0,0,0,0,-5.7375,-5.7363,-5.7321,-5.7448,-5.7467,-5.7461,-5.7533,-5.7482,-5.7521,-5.7507,-5.7452,-5.7454,-5.7569,-5.757,-5.7492,-5.7699,-5.7601,-5.7618,-5.7694,-5.7724,-5.7747,-5.7744,-5.7376,0,0,0,0,0,-5.7419,-5.748,-5.7466,-5.758,-5.7592,-5.7561,-5.7592,-5.7557,-5.7574,-5.7582,-5.7578,-5.7598,-5.7651,-5.7687,-5.7735,-5.7876,-5.7876,-5.7944,-5.7968,-5.7988,-5.8004,-5.8079,-5.8109,-5.7787,-5.7787,-5.7786,0,0,-5.7512,-5.7513,-5.7555,-5.7607,-5.7618,-5.7683,-5.7569,-5.7642,-5.769,-5.7593,-5.7691,-5.769,-5.7708,-5.7832,-5.7886,-5.7836,-5.8093,-5.8005,-5.8021,-5.8026,-5.8096,-5.8126,-5.8153,-5.7796,-5.7794,-5.7793,0,0,-5.7714,-5.7721,-5.7816,-5.7829,-5.7846,-5.7825,-5.7849,-5.7851,-5.7845,-5.7943,-5.7872,-5.7928,-5.8021,-5.8038,-5.8058,-5.8267,-5.8211,-5.8285,-5.8409,-5.8483,-5.8508,-5.853,-5.8605,-5.8633,-5.83,-5.8301,-5.8301,0,-5.7827,-5.7921,-5.7872,-5.795,-5.7976,-5.7891,-5.7988,-5.8003,-5.8036,-5.8056,-5.7999,-5.8114,-5.8121,-5.8247,-5.8298,-5.8318,-5.8343,-5.8283,-5.8508,-5.853,-5.855,-5.8621,-5.8649,-5.831,-5.8309,-5.8308,-5.8307,0,-5.8059,-5.8126,-5.8201,-5.8235,-5.8269,-5.8356,-5.8321,-5.8361,-5.8324,-5.8309,-5.841,-5.8415,-5.8462,-5.849,-5.8454,-5.8612,-5.858,-5.8517,-5.8417,-5.8591,-5.8656,-5.8683,-5.8322,-5.8319,-5.8317,-5.8314,0,0,-5.8347,-5.8352,-5.8381,-5.8395,-5.8408,-5.8459,-5.8543,-5.8589,-5.8625,-5.8651,-5.872,-5.8801,-5.8743,-5.8766,-5.8731,-5.8796,-5.8962,-5.8725,-5.8725,-5.8769,-5.9137,-5.9185,-5.9217,-5.8925,-5.893,-5.8934,-5.9136,0,-5.8546,-5.8688,-5.8647,-5.8791,-5.8852,-5.8773,-5.8846,-5.8862,-5.8851,-5.8902,-5.8889,-5.8947,-5.8866,-5.8879,-5.894,-5.8929,-5.9036,-5.8914,-5.8989,-5.8993,-5.8987,-5.9251,-5.9301,-5.9492,-5.9161,-5.9165,-5.9169,0,-5.8796,-5.8832,-5.8982,-5.8985,-5.9009,-5.9075,-5.9115,-5.9164,-5.9181,-5.9169,-5.9196,-5.9148,-5.9231,-5.913,-5.9244,-5.9163,-5.9191,-5.9191,-5.9197,-5.9203,-5.9091,-5.9264,-5.9551,-5.958,-5.9208,-5.9205,-5.9202,0,-5.8992,-5.9076,-5.9177,-5.9192,-5.9198,-5.9247,-5.9252,-5.9263,-5.9294,-5.9329,-5.9348,-5.9393,-5.9417,-5.9453,-5.9419,-5.9349,-5.9539,-5.9435,-5.9531,-5.9532,-5.9574,-5.9572,-5.9871,-5.9593,-5.9592,-5.9592,-5.9591,0,-5.9218,-5.9313,-5.9265,-5.9327,-5.9431,-5.9383,-5.9487,-5.9483,-5.9495,-5.9555,-5.9489,-5.9548,-5.9498,-5.9553,-5.9526,-5.9625,-5.9637,-5.9629,-5.9621,-5.9635,-5.9636,-5.9653,-5.9639,-5.9599,-5.9598,-5.9596,-5.9595,0,-5.9453,-5.9425,-5.9529,-5.9527,-5.9529,-5.9606,-5.9604,-5.9661,-5.9645,-5.9722,-5.9738,-5.9713,-5.9773,-5.9743,-5.9805,-5.9788,-5.9916,-5.989,-5.991,-5.9903,-6.0,-5.9992,-6.032,-6.0361,-6.0057,-6.006,-6.0062,0,-5.9599,-5.967,-5.9676,-5.9711,-5.9721,-5.9779,-5.981,-5.9765,-5.9801,-5.9826,-5.9881,-5.9935,-5.9977,-6.0077,-6.0065,-6.0113,-6.0087,-6.0199,-6.0094,-6.0106,-6.009,-6.0086,-6.0093,-6.0221,-6.0224,-6.0227,-6.0229,0,-5.9862,-5.9845,-5.9892,-5.9935,-5.9973,-6.0005,-6.0031,-6.0064,-6.002,-6.0063,-6.0124,-6.0156,-6.022,-6.0275,-6.0317,-6.0322,-6.027,-6.0263,-6.0287,-6.0302,-6.0311,-6.0308,-5.9968,-6.0255,-6.0253,-6.0251,-6.0249,-6.0248,-6.0057,-6.0117,-6.013,-6.0185,-6.02,-6.0226,-6.028,-6.0271,-6.0321,-6.0369,-6.034,-6.0411,-6.0427,-6.0478,-6.0491,-6.0546,-6.0502,-6.0537,-6.0546,-6.0556,-6.0569,-6.0302,-6.0554,-6.0553,-6.0552,-6.0551,-6.0551,0,-6.0317,-6.0321,-6.0372,-6.0411,-6.0454,-6.04,-6.0426,-6.0466,-6.053,-6.0549,-6.0591,-6.0661,-6.0715,-6.0707,-6.0756,-6.0803,-6.078,-6.0817,-6.0813,-6.0815,-6.0606,-6.058,-6.0835,-6.0835,-6.0835,-6.0835,-6.0835,-6.0835,-6.0457,-6.0555,-6.054,-6.0645,-6.0649,-6.0718,-6.0738,-6.0762,-6.0777,-6.0858,-6.0902,-6.0896,-6.0905,-6.0954,-6.1002,-6.0998,-6.1019,-6.1066,-6.1054,-6.0858,-6.083,-6.0803,-6.0778,-6.1071,-6.1071,-6.1258,-6.126,-6.1261]},{"header":{"parameterUnit":"m.s-1","parameterCategory":1,"la1":30.2991,"la2":30.254,"lo1":-89.0895,"lo2":-89.0444,"dy":0.0017,"dx":0.0017,"nx":28,"ny":28,"refTime":"2024-03-24T21:00:00:Z","depth":0,"parameterNumber":3,"parameterNumberName":"V-component_of_WINDS"},"data":[0,0,0,0,0,0,0,0,0,0,0,0,0,0,0,0,0,0,0,0,0,0,0,0,0,0,0,0,0,0,0,0,0,0,0,0,0,0,0,0,0,0,0,0,0,0,0,0,0,0,0,0,0,0,0,0,0,0,-0.0811,-0.0811,0,-0.0833,-0.0833,-0.0834,-0.0829,-0.0829,-0.0828,-0.0828,-0.0852,-0.0853,-0.0854,0,0,0,0,0,0,0,0,0,0,0,0,0,-0.0764,-0.0765,-0.0811,-0.0811,-0.0811,-0.0833,-0.0833,-0.0834,-0.0829,-0.0829,-0.0828,-0.0828,-0.0852,-0.0853,-0.0855,0,0,0,0,0,0,0,0,0,0,0,0,0,-0.0785,-0.0765,-0.0811,-0.0812,-0.0812,-0.0833,-0.0833,-0.0834,-0.0829,-0.0829,-0.0828,-0.0828,-0.0852,-0.0853,-0.0855,-0.0877,0,0,-0.0859,-0.086,0,0,0,0,0,0,0,0,-0.0784,-0.0787,-0.0811,-0.0812,-0.0812,-0.0828,-0.0826,-0.0848,-0.083,-0.0823,-0.0828,-0.0827,-0.0845,-0.0847,-0.0852,-0.0878,-0.0879,-0.086,-0.0861,-0.0861,-0.0862,0,0,0,0,0,0,0,-0.0783,-0.0786,-0.082,-0.0812,-0.0812,-0.0811,-0.0813,-0.083,-0.0837,-0.0823,-0.0823,-0.0826,-0.0845,-0.0851,-0.0853,-0.0879,-0.086,-0.0861,-0.0862,-0.0863,-0.0922,-0.0923,0,0,0,0,0,0,-0.0781,-0.0785,-0.0819,-0.082,-0.0796,-0.0812,-0.0815,-0.0823,-0.0837,-0.0838,-0.0826,-0.0825,-0.0849,-0.0851,-0.0854,-0.0879,-0.0861,-0.0863,-0.0864,-0.0921,-0.0922,-0.0923,0,0,0,0,0,0,-0.078,-0.0784,-0.0818,-0.0802,-0.0807,-0.0814,-0.0823,-0.0824,-0.083,-0.0839,-0.084,-0.0831,-0.0848,-0.0852,-0.0871,-0.088,-0.0863,-0.0865,-0.0921,-0.0922,-0.0922,-0.0931,0,0,0,0,0,0,-0.0778,-0.0783,-0.0792,-0.0803,-0.0808,-0.0834,-0.0824,-0.0825,-0.0833,-0.0832,-0.0844,-0.0845,-0.0848,-0.0868,-0.0872,-0.0882,-0.0866,-0.092,-0.0921,-0.0922,-0.093,-0.0932,-0.0934,0,0,0,0,0,-0.0777,-0.0794,-0.0792,-0.0797,-0.0818,-0.0835,-0.0838,-0.084,-0.0833,-0.0842,-0.0847,-0.0845,-0.0878,-0.087,-0.0875,-0.0885,-0.0919,-0.0921,-0.0922,-0.0929,-0.0932,-0.0934,0,0,0,0,0,0,-0.0786,-0.0796,-0.0794,-0.0815,-0.0824,-0.0834,-0.0845,-0.0843,-0.0854,-0.0853,-0.0856,-0.0859,-0.0878,-0.0883,-0.0874,-0.0906,-0.0898,-0.09,-0.0902,-0.0905,-0.0907,-0.0905,-0.0867,0,0,0,0,0,-0.079,-0.0802,-0.0811,-0.0829,-0.0833,-0.0838,-0.0846,-0.0846,-0.0856,-0.086,-0.0867,-0.0876,-0.0888,-0.0897,-0.0909,-0.0931,-0.0933,-0.094,-0.0942,-0.0944,-0.0946,-0.0957,-0.096,-0.0928,-0.0928,-0.0928,0,0,-0.0799,-0.0806,-0.0814,-0.0831,-0.0838,-0.085,-0.0841,-0.0856,-0.0865,-0.0862,-0.088,-0.0885,-0.0896,-0.0916,-0.0925,-0.0921,-0.0955,-0.0946,-0.0947,-0.0948,-0.0958,-0.0961,-0.0964,-0.0929,-0.0928,-0.0928,0,0,-0.0822,-0.0829,-0.0844,-0.0851,-0.0861,-0.0864,-0.0868,-0.0878,-0.0881,-0.0898,-0.0896,-0.0907,-0.0929,-0.0936,-0.0943,-0.0967,-0.0965,-0.0971,-0.0982,-0.0992,-0.0995,-0.0997,-0.1005,-0.1007,-0.0973,-0.0973,-0.0973,0,-0.0833,-0.0852,-0.0853,-0.0866,-0.0873,-0.087,-0.0885,-0.0892,-0.0906,-0.091,-0.0906,-0.0932,-0.0939,-0.096,-0.0965,-0.0971,-0.0975,-0.0969,-0.0994,-0.0996,-0.0998,-0.1006,-0.1009,-0.0973,-0.0973,-0.0973,-0.0973,0,-0.0863,-0.0876,-0.0887,-0.0899,-0.0908,-0.0922,-0.0925,-0.0933,-0.0933,-0.0936,-0.0953,-0.0961,-0.0974,-0.098,-0.098,-0.1,-0.0997,-0.0993,-0.0985,-0.1002,-0.1009,-0.1012,-0.0974,-0.0974,-0.0974,-0.0974,0,0,-0.0894,-0.0905,-0.0909,-0.0914,-0.0924,-0.0934,-0.0948,-0.096,-0.0966,-0.0975,-0.0987,-0.1004,-0.1,-0.1007,-0.1008,-0.1017,-0.1035,-0.1012,-0.1012,-0.1016,-0.1056,-0.1059,-0.1063,-0.1033,-0.1034,-0.1034,-0.1055,0,-0.0918,-0.0942,-0.0942,-0.0964,-0.0975,-0.0971,-0.0983,-0.099,-0.0994,-0.1004,-0.1007,-0.1019,-0.1013,-0.1017,-0.1026,-0.1031,-0.1043,-0.1029,-0.1044,-0.1044,-0.1041,-0.1066,-0.107,-0.1089,-0.1058,-0.1059,-0.1059,0,-0.0949,-0.0958,-0.098,-0.0987,-0.0992,-0.1003,-0.1013,-0.1022,-0.103,-0.1032,-0.1039,-0.1038,-0.1052,-0.1043,-0.1061,-0.1052,-0.1058,-0.106,-0.1061,-0.1063,-0.1053,-0.1068,-0.1096,-0.1099,-0.1063,-0.1063,-0.1063,0,-0.0968,-0.0986,-0.1001,-0.1005,-0.1014,-0.1021,-0.1025,-0.1033,-0.1039,-0.1048,-0.1052,-0.1063,-0.1069,-0.1077,-0.1079,-0.1072,-0.1097,-0.1088,-0.1098,-0.1098,-0.1104,-0.1103,-0.1133,-0.1108,-0.1108,-0.1108,-0.1108,0,-0.0994,-0.1008,-0.1009,-0.1019,-0.1034,-0.1034,-0.1049,-0.1052,-0.1058,-0.1068,-0.1066,-0.1075,-0.1077,-0.1087,-0.1089,-0.1103,-0.1106,-0.1107,-0.1108,-0.1108,-0.1107,-0.1111,-0.111,-0.1109,-0.1109,-0.1108,-0.1108,0,-0.1018,-0.102,-0.1036,-0.1042,-0.1044,-0.1055,-0.106,-0.1069,-0.1071,-0.1084,-0.1087,-0.109,-0.1101,-0.1104,-0.1118,-0.1118,-0.1135,-0.1135,-0.1133,-0.1132,-0.1142,-0.1141,-0.1175,-0.1179,-0.1152,-0.1152,-0.1152,0,-0.1035,-0.1045,-0.1052,-0.1058,-0.1062,-0.1072,-0.1078,-0.1078,-0.1085,-0.1093,-0.1101,-0.1112,-0.112,-0.1138,-0.1142,-0.1152,-0.1151,-0.1162,-0.1153,-0.1152,-0.1151,-0.115,-0.1151,-0.1164,-0.1165,-0.1165,-0.1165,0,-0.1064,-0.1063,-0.1072,-0.1081,-0.1088,-0.1095,-0.1102,-0.1107,-0.1108,-0.1115,-0.1126,-0.1133,-0.1145,-0.1156,-0.1165,-0.117,-0.1167,-0.1168,-0.117,-0.117,-0.1169,-0.1169,-0.1137,-0.1167,-0.1167,-0.1167,-0.1167,-0.1167,-0.1084,-0.1092,-0.1098,-0.1107,-0.1112,-0.1118,-0.1126,-0.1129,-0.1137,-0.1147,-0.1147,-0.1159,-0.1165,-0.1178,-0.1182,-0.1191,-0.1188,-0.1192,-0.1193,-0.1194,-0.1194,-0.1167,-0.1193,-0.1193,-0.1193,-0.1193,-0.1193,0,-0.1112,-0.1115,-0.1124,-0.1132,-0.114,-0.1136,-0.1143,-0.1149,-0.1159,-0.1165,-0.1172,-0.1184,-0.1194,-0.1198,-0.1207,-0.1214,-0.1213,-0.1216,-0.1216,-0.1217,-0.1197,-0.1194,-0.1217,-0.1217,-0.1217,-0.1217,-0.1217,-0.1217,-0.1128,-0.1141,-0.1141,-0.1157,-0.116,-0.1171,-0.1175,-0.118,-0.1184,-0.1197,-0.1205,-0.1207,-0.1212,-0.1221,-0.123,-0.1231,-0.1234,-0.1238,-0.1238,-0.122,-0.1218,-0.1216,-0.1212,-0.1239,-0.1239,-0.1257,-0.1257,-0.1257]}]]